Location: Unspecified
(0.0000°N, 0.0000°E)
Time: 04:14:04
(UTC+00:00)

SKYMED 4 - Visible Passes

Search period start: 24 October 2017 00:00
Search period end: 03 November 2017 00:00
Orbit: 621 x 623 km, 97.9° (Epoch: 23 October)

Date Brightness Start Highest point End Pass type
(mag) Time Alt. Az. Time Alt. Az. Time Alt. Az.
25 Oct 6.6 18:03:53 10° N 18:07:57 40° WNW 18:12:02 10° SSW visible
26 Oct 8.4 04:40:10 10° E 04:41:06 11° ENE 04:42:03 10° ENE visible
26 Oct 7.7 18:22:31 10° NNW 18:25:55 23° WNW 18:29:21 10° SW visible
27 Oct 7.9 04:55:58 10° SE 04:59:06 19° ENE 05:02:11 10° NNE visible
27 Oct 8.2 18:41:59 10° NW 18:43:53 13° WNW 18:45:50 10° WSW visible
28 Oct 7.0 05:13:07 10° SE 05:17:04 34° ENE 05:20:59 10° NNE visible
31 Oct 7.3 18:16:15 10° NNW 18:19:55 27° WNW 18:23:38 10° SW visible
01 Nov 8.0 04:50:26 10° ESE 04:53:05 16° ENE 04:55:44 10° NE visible
01 Nov 8.0 18:35:19 10° NW 18:37:54 16° WNW 18:40:30 10° WSW visible
02 Nov 7.3 05:07:20 10° SE 05:11:04 28° ENE 05:14:46 10° NNE visible
